Regional Weather Roundup
Issued by NWS

Home | Current Version | Previous Version | Text Only | Print | Product List | Glossary Off
Versions: 1 2 3 4 5 6 7 8 9 10 11 12 13 14 15 16 17 18 19 20 21 22 23 24 25 26 27 28 29 30 31 32 33 34 35 36 37 38 39 40 41 42 43 44 45 46 47 48 49 50

000
ASUS43 KMKX 181721
RWRWI

WISCONSIN REGIONAL WEATHER ROUNDUP
NATIONAL WEATHER SERVICE MILWAUKEE/SULLIVAN WI
1200 PM CDT SAT APR 18 2015

NOTE: "FAIR" INDICATES FEW OR NO CLOUDS BELOW 12,000 FEET WITH NO
SIGNIFICANT WEATHER AND/OR OBSTRUCTIONS TO VISIBILITY.

WIZ001-002-006>008-014>016-023>028-181800-
NORTHWEST WISCONSIN

CITY           SKY/WX    TMP DP  RH WIND       PRES   REMARKS
SUPERIOR ARPT  SUNNY     43  35  72 NE17G26   30.22S
ASHLAND        SUNNY     50  36  58 N18       30.22F
HAYWARD        SUNNY     57  25  29 E9G20     30.14F
SIREN          SUNNY     59  29  31 E7        30.12F
CUMBERLAND     SUNNY     59  30  33 E9        30.12S
RICE LAKE      SUNNY     60  30  32 E5        30.14S
CHETEK         SUNNY     60  34  37 NE3       30.12S
LADYSMITH      SUNNY     61  29  30 E7        30.14F
EAU CLAIRE     MOSUNNY   64  29  26 E12       30.09F
MENOMONIE      MOSUNNY   64  30  28 E10       30.10S
NEW RICHMOND   SUNNY     65  28  25 E10G20    30.09F
OSCEOLA        SUNNY     64  32  29 E12       30.12F
$$

WIZ003>005-009-010-017-018-181800-
NORTH CENTRAL WISCONSIN

CITY           SKY/WX    TMP DP  RH WIND       PRES   REMARKS
MANITOWISH WTR SUNNY     55  28  35 E12G18    30.17F
ARBOR VITAE    SUNNY     57  26  30 E7        30.16F
WOODRUFF       SUNNY     57  26  30 E7        30.16F
RHINELANDER    SUNNY     57  27  31 E14G22    30.17F
EAGLE RIVER    SUNNY     55  23  28 E13       30.18S
LAND O LAKES   SUNNY     55  26  32 E10       30.20F
PHILLIPS       SUNNY     57  28  32 E12       30.14F
TOMAHAWK       SUNNY     59  24  26 E8G16     30.16F
MEDFORD        MOSUNNY   58  33  37 SE13      30.14S
MERRILL        SUNNY     59  28  30 SE13G21   30.15F
$$

WIZ029-030-035-036-043>047-181800-
CENTRAL WISCONSIN

CITY           SKY/WX    TMP DP  RH WIND       PRES   REMARKS
WAUSAU         SUNNY     59  29  31 E13G23    30.14F
MOSINEE        SUNNY     57  30  35 E10G17    30.16F
MARSHFIELD     MOSUNNY   62  32  32 SE17G23   30.14S
STEVENS POINT  MOSUNNY   57  33  40 E9        30.16F
WAUPACA        MOSUNNY   58  31  36 E13G22    30.18S
WAUTOMA        MOSUNNY   60  31  33 E14       30.17R
WISC RAPIDS      N/A     61  29  29 E14       30.15F
CAMP DOUGLAS   SUNNY     65  33  30 E16       30.11F
$$

WIZ011>013-019>022-031-037>040-048>050-181800-
NORTHEAST WISCONSIN

CITY           SKY/WX    TMP DP  RH WIND       PRES   REMARKS
ANTIGO         SUNNY     56  29  36 E16       30.18S
SHAWANO        SUNNY     56  34  43 NE13      30.20S
OCONTO         SUNNY     51  33  51 NE15G22   30.21F
STURGEON BAY   SUNNY     52  30  43 NE16G24   30.23S
GREEN BAY      SUNNY     52  39  61 NE16      30.20F
MANITOWOC      MOSUNNY   47  36  65 NE10G23     N/A
APPLETON       PTSUNNY   54  36  50 NE9G17    30.18F
CLINTONVILLE   SUNNY     55  32  41 E10       30.19S
OSHKOSH        MOSUNNY   56  36  47 E17G25    30.16F
$$

WIZ032>034-041-042-053>061-181800-
SOUTHWEST WISCONSIN

CITY           SKY/WX    TMP DP  RH WIND       PRES   REMARKS
LA CROSSE      MOSUNNY   70  34  26 E10       30.06F
SPARTA         SUNNY     67  30  25 E17       30.10S
VIROQUA        MOSUNNY   67  33  28 E16       30.08S
BOSCOBEL       SUNNY     71  37  28 E10G20    30.06F
PRAIRIE DU CHI SUNNY     72  37  27 E13       30.03F
PLATTEVILLE    MOSUNNY   69  40  35 E17G24    30.05F
$$

WIZ056-057-062-063-064-067-068-181800-
SOUTH CENTRAL WISCONSIN

CITY           SKY/WX    TMP DP  RH WIND       PRES   REMARKS
REEDSBURG      SUNNY     61  36  38 E12G20    30.11S
BARABOO/DELLS  SUNNY     61  34  36 E14G24    30.12S
LONE ROCK      SUNNY     66  38  35 E17       30.08F
MINERAL POINT  MOSUNNY   68  36  30 E14G21    30.07S
MADISON        PTSUNNY   64  36  35 E18       30.11F
MIDDLETON      SUNNY     64  34  32 E13       30.11S
WATERTOWN      MOSUNNY   62  35  36 E15G22    30.12S
MONROE         SUNNY     66  36  32 E12G24    30.08S
JANESVILLE     SUNNY     64  28  25 E21G26    30.10S
$$

WIZ051-052-058>065-066-070>072-181800-
SOUTHEAST WISCONSIN

CITY           SKY/WX    TMP DP  RH WIND       PRES   REMARKS
MILWAUKEE      MOSUNNY   46  36  68 N25G35    30.16S
WAUKESHA       MOSUNNY   54  34  47 NE17G30   30.15
MILWAUKEE/TIMM SUNNY     52  34  50 NE15G30   30.15F
RACINE         SUNNY     46  36  68 N21G32    30.15S
BURLINGTON     SUNNY     57  33  41 NE12G17   30.12S
KENOSHA        SUNNY     54  38  54 NE16G24   30.13S
FOND DU LAC    MOSUNNY   58  33  39 E17       30.16S
SHEBOYGAN      MOSUNNY   51  37  58 NE23      30.17F
WEST BEND      MOSUNNY   54  32  43 NE17      30.15F
JUNEAU         MOSUNNY   59  35  40 NE17G23   30.14F
$$

LSZ147-162-181800-
LAKE SUPERIOR

STATION/POSITION TIME  TEMP    WIND        PRES    WAVE
                       AIR SEA DIR/SP/G            HT/PER
                 (UTC) (F)     (DEG/KT/KT) (MB)    (FT/S)
DEVILS ISLAND    1700   36      40/ 16/ 17 1025.5F
PORT WING        1640   39      30/ 20/ 24 1023.4F
SAXON HARBOR     1600   39      40/ 16/ 19 1023.0
$$

LMZ867-665-643>646-181800-
LAKE MICHIGAN

STATION/POSITION TIME  TEMP    WIND        PRES    WAVE
                       AIR SEA DIR/SP/G            HT/PER
                 (UTC) (F)     (DEG/KT/KT) (MB)    (FT/S)
CHAMBERS ISLAND  1600   41      30/ 10/ 14 1024.0R
NORTHPORT PIER   1600   42     310/  9/ 10 1023.7R
SISTER BAY       1532   48     360/ 12/ 15   N/A
KEWAUNEE LAKESHO 1700   43      40/ 16/ 20 1022.0F
SHEBOYGAN LAKESH 1700   40      10/ 24/ 26 1022.3F
PORT WASHINGTON  1600   49      40/ 17/ 23 1022.0S
MILWAUKEE LAKESH 1700   42      10/ 22/ 31   N/A
KENOSHA   LAKESH 1700   43      10/ 23/ 27 1020.0R
$$

TC  - TEMPERATURE IN CELSIUS
VSB - VISIBILITY IN STATUTE MILES
WCI - WIND CHILL INDEX
HX  - HEAT INDEX




USA.gov is the U.S. government's official web portal to all federal, state and local government web resources and services.